G6SGA Weather Reports


time (UTC)temp
C
wind
direction
speed
KPH
gust
KPH
rain 1hr
cm
rain 24hr
cm
rain mn
cm
humidity
%
barometer
mb
20260506002503 6 40 3.2 9.7 0.00 0.00 0.00 76 1028.2
20260506002003 6 34 3.2 9.7 0.00 0.00 0.00 76 1028.2
20260506001503 6 35 3.2 9.7 0.00 0.00 0.00 76 1028.2
20260506001003 6 43 1.6 8.0 0.00 0.00 0.00 77 1028.2
20260506000503 6 34 3.2 8.0 0.00 0.00 0.00 77 1028.2
20260506000212 6 41 3.2 8.0 0.00 0.00 0.00 77 1028.2
20260505235503 6 52 3.2 11.3 0.00 0.00 0.00 77 1028.2
20260505235211 6 60 3.2 11.3 0.00 0.00 0.00 77 1028.2
20260505234503 6 68 3.2 9.7 0.00 0.00 0.00 77 1028.2
20260505234003 6 50 3.2 12.9 0.00 0.00 0.00 77 1028.2
20260505233503 6 40 3.2 12.9 0.00 0.00 0.00 77 1028.2
20260505233211 6 34 3.2 9.7 0.00 0.00 0.00 77 1028.2
20260505232503 6 47 3.2 11.3 0.00 0.00 0.00 77 1028.2
20260505232003 6 66 3.2 12.9 0.00 0.00 0.00 77 1028.2
20260505231503 7 62 3.2 12.9 0.00 0.00 0.00 77 1028.2
20260505231003 7 54 3.2 12.9 0.00 0.00 0.00 77 1028.2
20260505230503 7 53 3.2 11.3 0.00 0.00 0.00 77 1028.2
20260505230213 7 55 4.8 16.1 0.00 0.00 0.00 77 1028.2
20260505225504 7 51 4.8 16.1 0.00 0.00 0.00 76 1028.2
20260505225003 7 70 4.8 12.9 0.00 0.00 0.00 77 1028.2
20260505224503 7 97 3.2 11.3 0.00 0.00 0.00 77 1028.2
20260505224211 7 93 3.2 11.3 0.00 0.00 0.00 78 1028.2
20260505223503 7 50 3.2 9.7 0.00 0.00 0.00 78 1028.2
20260505223003 7 46 3.2 9.7 0.00 0.00 0.00 78 1028.2
20260505222503 7 47 3.2 9.7 0.00 0.00 0.00 79 1028.2
20260505222211 7 33 3.2 8.0 0.00 0.00 0.00 80 1028.2
20260505221503 7 35 3.2 11.3 0.00 0.00 0.00 80 1028.2
20260505221003 7 32 3.2 11.3 0.00 0.00 0.00 80 1028.2
20260505220503 7 33 3.2 11.3 0.00 0.00 0.00 80 1028.2
20260505220211 7 44 3.2 9.7 0.00 0.00 0.00 80 1028.2
20260505215503 7 64 3.2 9.7 0.00 0.00 0.00 79 1028.2
20260505215003 7 56 3.2 9.7 0.00 0.00 0.00 79 1028.2
20260505214711 7 57 3.2 8.0 0.00 0.00 0.00 79 1028.2
20260505214210 7 52 3.2 6.4 0.00 0.00 0.00 79 1028.2
20260505213503 7 69 3.2 11.3 0.00 0.00 0.00 79 1028.2
20260505213003 7 76 3.2 11.3 0.00 0.00 0.00 79 1028.2
20260505212711 7 78 3.2 11.3 0.00 0.00 0.00 79 1028.2
20260505212211 7 78 3.2 9.7 0.00 0.00 0.00 80 1028.2
20260505211503 7 80 3.2 12.9 0.00 0.00 0.00 80 1028.2
20260505211004 7 86 3.2 12.9 0.00 0.00 0.00 81 1028.2
20260505210503 8 89 3.2 12.9 0.00 0.00 0.00 81 1028.2
20260505210004 8 98 3.2 11.3 0.00 0.00 0.00 81 1028.2
20260505205503 8 87 3.2 11.3 0.00 0.00 0.00 81 1028.2
20260505205003 8 87 3.2 11.3 0.00 0.00 0.00 81 1028.2
20260505204503 8 75 3.2 11.3 0.00 0.00 0.00 81 1028.2
20260505204003 8 53 3.2 12.9 0.00 0.00 0.00 81 1028.2
20260505203503 8 53 4.8 12.9 0.00 0.00 0.00 81 1028.2
20260505203003 8 55 3.2 9.7 0.00 0.00 0.00 80 1028.2
20260505202503 8 46 4.8 11.3 0.00 0.00 0.00 80 1028.2
20260505202211 8 46 4.8 11.3 0.00 0.00 0.00 80 1028.2
20260505201504 9 47 4.8 14.5 0.00 0.00 0.00 80 1028.2
20260505201003 9 51 3.2 12.9 0.00 0.00 0.00 81 1028.2
20260505200503 9 42 1.6 6.4 0.00 0.00 0.00 81 1028.2
20260505200211 9 31 1.6 8.0 0.00 0.00 0.00 81 1028.2
20260505195503 9 29 3.2 9.7 0.00 0.00 0.00 80 1028.2
20260505195003 9 27 3.2 9.7 0.00 0.00 0.00 80 1028.2
20260505194503 9 20 3.2 9.7 0.00 0.00 0.00 80 1028.2
20260505194003 9 7 4.8 9.7 0.00 0.00 0.00 80 1028.2
20260505193503 9 355 4.8 9.7 0.00 0.00 0.00 80 1028.2
20260505193004 9 332 4.8 11.3 0.00 0.00 0.00 79 1028.2
20260505192503 9 296 4.8 11.3 0.00 0.00 0.00 79 1028.2
20260505192003 9 279 4.8 9.7 0.00 0.00 0.00 79 1028.2
20260505191503 10 306 4.8 11.3 0.00 0.00 0.00 78 1028.2
20260505191211 10 315 4.8 11.3 0.00 0.00 0.00 78 1028.2
20260505190503 10 303 4.8 11.3 0.00 0.00 0.00 77 1028.2
20260505190004 10 314 4.8 9.7 0.00 0.00 0.00 77 1028.2
20260505185503 10 328 4.8 12.9 0.00 0.00 0.00 76 1028.2
20260505185003 10 335 6.4 12.9 0.00 0.00 0.00 76 1028.2
20260505184503 10 344 6.4 12.9 0.00 0.00 0.00 75 1028.2
20260505184211 10 346 6.4 12.9 0.00 0.00 0.00 75 1028.2
20260505183503 10 338 4.8 12.9 0.00 0.00 0.00 74 1028.2
20260505183003 10 329 4.8 9.7 0.00 0.00 0.00 75 1028.2
20260505182503 10 327 3.2 8.0 0.00 0.00 0.00 75 1028.2
20260505182004 11 322 3.2 8.0 0.00 0.00 0.00 75 1028.2
20260505181711 11 319 3.2 8.0 0.00 0.00 0.00 74 1028.2
20260505181003 11 328 4.8 9.7 0.00 0.00 0.00 73 1028.2
20260505180503 11 328 4.8 11.3 0.00 0.00 0.00 72 1028.2
20260505180004 11 326 4.8 12.9 0.00 0.00 0.00 72 1028.2
20260505175503 11 326 4.8 12.9 0.00 0.00 0.00 72 1028.2
20260505175003 11 332 3.2 9.7 0.00 0.00 0.00 72 1028.2
20260505174504 11 333 4.8 11.3 0.00 0.00 0.00 72 1028.2
20260505174003 11 329 4.8 11.3 0.00 0.00 0.00 72 1028.2
20260505173711 11 328 4.8 11.3 0.00 0.00 0.00 72 1028.2
20260505173004 11 324 4.8 11.3 0.00 0.00 0.00 71 1028.2
20260505172711 11 325 4.8 9.7 0.00 0.00 0.00 71 1028.2
20260505172003 11 328 4.8 12.9 0.00 0.00 0.00 70 1028.2
20260505171503 11 330 4.8 12.9 0.00 0.00 0.00 69 1028.2
20260505171003 11 334 4.8 12.9 0.00 0.00 0.00 68 1028.2
20260505170503 11 329 4.8 12.9 0.00 0.00 0.00 68 1028.2
20260505170004 11 327 4.8 12.9 0.00 0.00 0.00 68 1028.2
20260505165503 11 328 4.8 12.9 0.00 0.00 0.00 67 1028.2
20260505165004 11 325 4.8 9.7 0.00 0.00 0.00 69 1028.2
20260505164503 11 319 4.8 9.7 0.00 0.00 0.00 72 1028.2
20260505164003 11 317 4.8 9.7 0.00 0.00 0.00 73 1028.2
20260505163503 11 320 4.8 12.9 0.00 0.00 0.00 72 1028.2
20260505163210 11 323 4.8 12.9 0.00 0.00 0.00 74 1028.2
20260505162504 10 325 3.2 8.0 0.00 0.00 0.00 74 1028.2
20260505162003 10 337 4.8 9.7 0.00 0.00 0.00 74 1028.2
20260505161710 10 341 4.8 9.7 0.00 0.00 0.00 74 1028.2
20260505161003 10 330 4.8 9.7 0.00 0.00 0.00 74 1028.2
20260505160503 10 332 4.8 9.7 0.00 0.00 0.00 75 1028.2
20260505153003 10 342 4.8 12.9 0.00 0.00 0.00 74 1028.2
20260505152504 10 341 4.8 12.9 0.00 0.00 0.00 75 1028.2
20260505152211 10 346 4.8 12.9 0.00 0.00 0.00 74 1028.2
20260505151503 10 341 4.8 11.3 0.00 0.00 0.00 75 1028.2
20260505151003 10 336 4.8 11.3 0.00 0.00 0.00 75 1028.2
20260505150503 10 355 4.8 11.3 0.00 0.00 0.00 76 1028.2
20260505140503 11 338 4.8 12.9 0.00 0.00 0.00 68 1028.2
20260505125003 11 316 4.8 11.3 0.00 0.00 0.00 69 1028.2
20260505124503 12 317 4.8 14.5 0.00 0.00 0.00 68 1028.2
20260505124004 11 329 4.8 14.5 0.00 0.00 0.00 68 1028.2
20260505123503 11 329 6.4 14.5 0.00 0.00 0.00 69 1028.2
20260505123003 11 322 6.4 12.9 0.00 0.00 0.00 68 1028.2
20260505122504 11 324 6.4 14.5 0.00 0.00 0.00 70 1028.2
20260505122003 11 330 6.4 16.1 0.00 0.00 0.00 71 1028.2
20260505121503 11 331 6.4 16.1 0.00 0.00 0.00 69 1028.2
20260505121003 11 335 6.4 14.5 0.00 0.00 0.00 70 1028.2
20260505120710 11 331 6.4 14.5 0.00 0.00 0.00 70 1028.2
20260505120004 11 317 6.4 11.3 0.00 0.00 0.00 70 1028.2
20260505115503 11 327 6.4 12.9 0.00 0.00 0.00 70 1028.2
20260505115211 11 331 6.4 12.9 0.00 0.00 0.00 70 1028.2
20260505114711 11 336 4.8 12.9 0.00 0.00 0.00 68 1028.2
20260505114004 11 336 6.4 14.5 0.00 0.00 0.00 67 1028.2
20260505113503 11 334 6.4 14.5 0.00 0.00 0.00 67 1028.2
20260505113004 11 330 6.4 14.5 0.00 0.00 0.00 67 1028.2
20260505112503 12 332 6.4 14.5 0.00 0.00 0.00 65 1028.2
20260505112003 11 340 6.4 11.3 0.00 0.00 0.00 67 1028.2
20260505111503 11 333 6.4 12.9 0.00 0.00 0.00 68 1028.2
20260505111210 11 327 6.4 12.9 0.00 0.00 0.00 68 1028.2
20260505110503 11 331 4.8 11.3 0.00 0.00 0.00 68 1028.2
20260505110211 11 328 4.8 12.9 0.00 0.00 0.00 68 1028.2
20260505102004 10 2 8.0 16.1 0.00 0.00 0.00 70 1028.2
20260505101503 10 2 6.4 16.1 0.00 0.00 0.00 70 1028.2
20260505101004 10 3 6.4 17.7 0.00 0.00 0.00 70 1028.2
20260505100503 10 3 8.0 17.7 0.00 0.00 0.00 70 1028.2
20260505100004 10 359 8.0 17.7 0.00 0.00 0.00 72 1028.2
20260505095503 10 353 8.0 17.7 0.00 0.00 0.00 74 1028.2
20260505095003 10 348 8.0 17.7 0.00 0.00 0.00 74 1028.2
20260505094504 11 348 6.4 17.7 0.00 0.00 0.00 71 1028.2
20260505094003 11 341 6.4 17.7 0.00 0.00 0.00 67 1028.2
20260505093503 11 338 6.4 17.7 0.00 0.00 0.00 65 1028.2
20260505093004 11 330 6.4 14.5 0.00 0.00 0.00 65 1028.2
20260505092711 11 331 8.0 17.7 0.00 0.00 0.00 64 1028.2
20260505092211 11 335 8.0 17.7 0.00 0.00 0.00 65 1028.2
20260505091503 11 338 6.4 14.5 0.00 0.00 0.00 66 1028.2
20260505091003 10 348 8.0 17.7 0.00 0.00 0.00 67 1028.2
20260505090503 10 349 8.0 17.7 0.00 0.00 0.00 70 1028.2
20260505090211 11 346 8.0 17.7 0.00 0.00 0.00 70 1028.2
20260505085503 11 343 6.4 14.5 0.00 0.00 0.00 70 1028.2
20260505085003 11 346 6.4 14.5 0.00 0.00 0.00 69 1028.2
20260505084503 11 356 6.4 14.5 0.00 0.00 0.00 69 1028.2
20260505084003 11 355 6.4 14.5 0.00 0.00 0.00 69 1028.2
20260505083503 11 353 6.4 14.5 0.00 0.00 0.00 70 1028.2
20260505083210 11 355 6.4 14.5 0.00 0.00 0.00 71 1028.2
20260505082711 10 4 8.0 14.5 0.00 0.00 0.00 72 1028.2
20260505082003 10 8 6.4 14.5 0.00 0.00 0.00 75 1028.2
20260505081504 10 6 6.4 14.5 0.00 0.00 0.00 78 1028.2
20260505081211 10 10 6.4 14.5 0.00 0.00 0.00 78 1028.2
20260505080503 10 6 6.4 12.9 0.00 0.00 0.00 80 1028.2
20260505080004 10 9 6.4 12.9 0.00 0.00 0.00 80 1028.2
20260505075503 9 6 6.4 12.9 0.00 0.00 0.00 81 1028.2
20260505075003 9 356 8.0 12.9 0.00 0.00 0.00 84 1028.2
20260505074503 9 358 6.4 12.9 0.00 0.00 0.00 84 1028.2
20260505074003 9 9 4.8 9.7 0.00 0.00 0.00 86 1028.2
20260505073503 8 1 4.8 9.7 0.00 0.00 0.00 88 1028.2
20260505073004 8 342 4.8 9.7 0.00 0.00 0.00 90 1028.2
20260505072503 8 342 4.8 11.3 0.00 0.00 0.00 91 1028.2
20260505072003 8 349 4.8 11.3 0.00 0.00 0.00 92 1028.2
20260505071710 8 347 4.8 11.3 0.00 0.00 0.00 92 1028.2
20260505071003 7 344 4.8 9.7 0.00 0.00 0.00 93 1028.2
20260505070503 7 351 4.8 9.7 0.00 0.00 0.00 93 1028.2
20260505070004 7 353 3.2 9.7 0.00 0.00 0.00 94 1028.2
20260505065503 7 333 3.2 9.7 0.00 0.00 0.00 96 1028.2
20260505065003 7 326 4.8 9.7 0.00 0.00 0.00 96 1028.2
20260505064503 7 334 4.8 9.7 0.00 0.00 0.00 96 1028.2
20260505064003 7 346 4.8 11.3 0.00 0.00 0.00 96 1028.2
20260505063503 7 344 4.8 11.3 0.00 0.00 0.00 96 1028.2
20260505063211 7 337 4.8 11.3 0.00 0.00 0.00 96 1028.2
20260505062503 7 336 3.2 8.0 0.00 0.00 0.00 96 1028.2
20260505062003 7 344 3.2 8.0 0.00 0.00 0.00 97 1028.2
20260505061504 7 344 3.2 8.0 0.00 0.00 0.00 97 1028.2
20260505061003 7 341 3.2 6.4 0.00 0.00 0.00 99 1028.2
20260505060503 7 333 3.2 6.4 0.00 0.00 0.00 99 1028.2
20260505060211 6 333 3.2 6.4 0.00 0.00 0.00 99 1028.2
20260505055711 6 332 4.8 6.4 0.00 0.00 0.00 99 1028.2
20260505055003 6 345 3.2 8.0 0.00 0.00 0.00 99 1028.2
20260505054504 6 338 3.2 8.0 0.00 0.00 0.00 99 1028.2
20260505054211 6 339 3.2 8.0 0.00 0.00 0.00 99 1028.2
20260505053504 6 337 1.6 3.2 0.00 0.00 0.00 99 1028.2
20260505053003 6 334 1.6 3.2 0.00 0.00 0.00 99 1028.2
20260505052503 6 319 1.6 3.2 0.00 0.00 0.00 99 1028.2
20260505052003 5 316 1.6 3.2 0.00 0.00 0.00 99 1028.2
20260505051503 5 327 1.6 3.2 0.00 0.00 0.00 99 1028.2
20260505051003 5 319 1.6 4.8 0.00 0.00 0.00 99 1028.2
20260505050503 5 311 1.6 4.8 0.00 0.00 0.00 99 1028.2
20260505050211 5 315 1.6 4.8 0.00 0.00 0.00 99 1028.2
20260505041503 6 337 3.2 6.4 0.00 0.00 0.00 99 1028.2
20260505041003 6 338 3.2 4.8 0.00 0.00 0.00 99 1028.2
20260505040503 6 344 3.2 6.4 0.00 0.00 0.00 99 1028.2
20260505040004 6 342 3.2 6.4 0.00 0.00 0.00 99 1028.2
20260505035503 6 344 3.2 6.4 0.00 0.00 0.00 99 1028.2
20260505035211 6 342 3.2 6.4 0.00 0.00 0.00 99 1028.2
20260505033503 6 341 3.2 6.4 0.00 0.00 0.00 98 1028.2
20260505033211 6 340 3.2 6.4 0.00 0.00 0.00 98 1028.2
20260505032503 6 344 3.2 6.4 0.00 0.00 0.00 98 1028.2
20260505032003 6 341 3.2 4.8 0.00 0.00 0.00 98 1028.2
20260505031503 6 347 3.2 4.8 0.00 0.00 0.00 98 1028.2
20260505031211 6 348 3.2 4.8 0.00 0.00 0.00 98 1028.2
20260505030710 6 349 3.2 9.7 0.00 0.00 0.00 98 1028.2
20260505030004 6 350 3.2 9.7 0.00 0.00 0.00 98 1028.2
20260505025503 6 347 3.2 6.4 0.00 0.00 0.00 98 1028.2
20260505025004 6 342 4.8 6.4 0.00 0.00 0.00 98 1028.2
20260505024503 6 341 4.8 8.0 0.00 0.00 0.00 98 1028.2
20260505024003 6 343 4.8 9.7 0.00 0.00 0.00 98 1028.2
20260505023503 6 340 4.8 9.7 0.00 0.00 0.00 98 1028.2
20260505023003 6 332 3.2 6.4 0.00 0.00 0.00 98 1028.2
20260505022504 6 327 3.2 6.4 0.00 0.00 0.00 98 1028.2
20260505022003 6 320 3.2 6.4 0.00 0.00 0.00 97 1028.2
20260505021503 6 321 3.2 6.4 0.00 0.00 0.00 96 1028.2
20260505021211 6 319 3.2 8.0 0.00 0.00 0.00 96 1028.2
20260505020503 6 312 3.2 8.0 0.00 0.00 0.00 96 1028.2
20260505020004 6 302 3.2 6.4 0.00 0.00 0.00 95 1028.2
20260505015710 6 309 3.2 6.4 0.00 0.00 0.00 95 1028.2
20260505015211 6 318 3.2 6.4 0.00 0.00 0.00 95 1028.2
20260505014503 6 321 3.2 6.4 0.00 0.00 0.00 94 1028.2
20260505014003 6 321 3.2 6.4 0.00 0.00 0.00 94 1028.2
20260505013503 6 326 3.2 6.4 0.00 0.00 0.00 93 1028.2
20260505013003 6 338 4.8 8.0 0.00 0.00 0.00 92 1028.2
20260505012503 6 344 4.8 8.0 0.00 0.00 0.00 92 1028.2
20260505012003 6 339 4.8 8.0 0.00 0.00 0.00 92 1028.2
20260505011711 6 337 4.8 8.0 0.00 0.00 0.00 92 1028.2
20260505011003 6 336 4.8 9.7 0.00 0.00 0.00 92 1028.2
20260505010503 6 337 4.8 9.7 0.00 0.00 0.00 92 1028.2
20260505010004 6 333 4.8 11.3 0.00 0.00 0.00 92 1028.2
20260505005503 6 332 4.8 11.3 0.00 0.00 0.00 91 1028.2
20260505005004 6 336 4.8 9.7 0.00 0.00 0.00 91 1028.2
20260505004503 6 334 4.8 9.7 0.00 0.00 0.00 92 1028.2
20260505004211 6 335 4.8 9.7 0.00 0.00 0.00 92 1028.2
20260505003504 6 328 4.8 8.0 0.00 0.00 0.00 92 1028.2